| time (UTC) | temp C | wind direction | speed KPH | gust KPH | rain 1hr cm | rain 24hr cm | rain mn cm | humidity % | barometer mb |
| 20260507071432 | 11 | 181 | 0.0 | 6.4 | 0.00 | 0.25 | 0.00 | 85 | 1005.8 |
| 20260507065932 | 12 | 131 | 0.0 | 1.6 | 0.00 | 0.25 | 0.00 | 87 | 1005.6 |
| 20260507064432 | 12 | 150 | 0.0 | 4.8 | 0.00 | 0.25 | 0.00 | 86 | 1005.5 |
| 20260507062931 | 12 | 257 | 0.0 | 8.0 | 0.00 | 0.25 | 0.00 | 86 | 1006.0 |
| 20260507061432 | 12 | 245 | 1.6 | 3.2 | 0.00 | 0.25 | 0.00 | 86 | 1005.7 |
| 20260507055932 | 12 | 71 | 0.0 | 3.2 | 0.00 | 0.25 | 0.00 | 86 | 1005.9 |
| 20260507054432 | 13 | 260 | 0.0 | 9.7 | 0.00 | 0.25 | 0.00 | 85 | 1006.0 |
| 20260507052931 | 13 | 258 | 3.2 | 16.1 | 0.00 | 0.25 | 0.00 | 88 | 1006.3 |
| 20260507051431 | 13 | 240 | 0.0 | 14.5 | 0.00 | 0.25 | 0.00 | 89 | 1006.1 |
| 20260507045931 | 14 | 262 | 0.0 | 3.2 | 0.00 | 0.25 | 0.00 | 90 | 1005.9 |
| 20260507044431 | 14 | 163 | 1.6 | 9.7 | 0.00 | 0.25 | 0.00 | 90 | 1006.0 |
| 20260507042932 | 14 | 251 | 0.0 | 6.4 | 0.00 | 0.25 | 0.00 | 91 | 1005.9 |
| 20260507041432 | 14 | 269 | 0.0 | 6.4 | 0.00 | 0.25 | 0.00 | 91 | 1005.8 |
| 20260507035931 | 15 | 218 | 1.6 | 4.8 | 0.00 | 0.25 | 0.00 | 92 | 1005.8 |
| 20260507034431 | 15 | 236 | 0.0 | 3.2 | 0.00 | 0.25 | 0.25 | 92 | 1006.0 |
| 20260507032931 | 14 | 252 | 0.0 | 3.2 | 0.00 | 0.25 | 0.25 | 92 | 1005.8 |
| 20260507031432 | 14 | 210 | 1.6 | 3.2 | 0.00 | 0.25 | 0.25 | 92 | 1005.7 |
| 20260507025932 | 14 | 240 | 0.0 | 3.2 | 0.00 | 0.25 | 0.25 | 92 | 1005.6 |
| 20260507024432 | 14 | 244 | 0.0 | 3.2 | 0.00 | 0.25 | 0.25 | 92 | 1005.5 |
| 20260507022931 | 14 | 247 | 0.0 | 4.8 | 0.00 | 0.25 | 0.25 | 92 | 1005.6 |
| 20260507021433 | 14 | 246 | 0.0 | 3.2 | 0.00 | 0.25 | 0.25 | 92 | 1005.4 |
| 20260507015933 | 14 | 234 | 1.6 | 4.8 | 0.00 | 0.25 | 0.25 | 92 | 1005.7 |
| 20260507014432 | 14 | 240 | 0.0 | 3.2 | 0.00 | 0.25 | 0.25 | 92 | 1005.5 |
| 20260507012932 | 14 | 250 | 0.0 | 3.2 | 0.00 | 0.25 | 0.25 | 92 | 1005.7 |
| 20260507011432 | 14 | 242 | 1.6 | 3.2 | 0.00 | 0.25 | 0.25 | 92 | 1005.9 |
| 20260507005932 | 13 | 236 | 0.0 | 3.2 | 0.00 | 0.25 | 0.25 | 92 | 1005.9 |
| 20260507004431 | 13 | 219 | 0.0 | 3.2 | 0.00 | 0.25 | 0.25 | 92 | 1005.9 |
| 20260507002931 | 13 | 220 | 0.0 | 4.8 | 0.03 | 0.25 | 0.25 | 92 | 1005.9 |
| 20260507001434 | 13 | 243 | 1.6 | 6.4 | 0.05 | 0.25 | 0.25 | 92 | 1005.7 |
| 20260506235932 | 13 | 136 | 0.0 | 4.8 | 0.08 | 0.25 | 0.25 | 92 | 1005.6 |
| 20260506234431 | 14 | 157 | 0.0 | 3.2 | 0.08 | 0.25 | 0.25 | 91 | 1005.5 |
| 20260506232932 | 14 | 148 | 1.6 | 4.8 | 0.05 | 0.23 | 0.23 | 91 | 1005.4 |
| 20260506231431 | 14 | 148 | 0.0 | 4.8 | 0.03 | 0.20 | 0.20 | 91 | 1005.4 |
| 20260506225933 | 14 | 153 | 0.0 | 4.8 | 0.00 | 0.18 | 0.18 | 91 | 1005.5 |
| 20260506224431 | 15 | 143 | 1.6 | 4.8 | 0.00 | 0.18 | 0.18 | 91 | 1005.5 |
| 20260506222931 | 15 | 133 | 1.6 | 3.2 | 0.03 | 0.18 | 0.18 | 91 | 1005.5 |
| 20260506221431 | 15 | 157 | 1.6 | 6.4 | 0.05 | 0.18 | 0.18 | 91 | 1005.8 |
| 20260506215932 | 15 | 175 | 1.6 | 4.8 | 0.08 | 0.18 | 0.18 | 91 | 1005.7 |
| 20260506214431 | 15 | 217 | 0.0 | 4.8 | 0.08 | 0.18 | 0.18 | 90 | 1005.8 |
| 20260506212932 | 15 | 210 | 1.6 | 4.8 | 0.05 | 0.15 | 0.15 | 90 | 1006.1 |
| 20260506211431 | 15 | 254 | 1.6 | 11.3 | 0.05 | 0.13 | 0.13 | 89 | 1006.1 |
| 20260506205934 | 15 | 123 | 0.0 | 8.0 | 0.03 | 0.10 | 0.10 | 89 | 1006.2 |
| 20260506204432 | 15 | 231 | 1.6 | 4.8 | 0.05 | 0.10 | 0.10 | 89 | 1006.5 |
| 20260506202932 | 16 | 207 | 0.0 | 8.0 | 0.08 | 0.10 | 0.10 | 88 | 1006.8 |
| 20260506201434 | 16 | 158 | 1.6 | 6.4 | 0.08 | 0.08 | 0.08 | 87 | 1006.7 |
| 20260506195932 | 16 | 248 | 1.6 | 6.4 | 0.08 | 0.08 | 0.08 | 86 | 1006.6 |
| 20260506194434 | 17 | 98 | 0.0 | 4.8 | 0.05 | 0.05 | 0.05 | 86 | 1006.4 |
| 20260506192931 | 17 | 257 | 0.0 | 6.4 | 0.03 | 0.03 | 0.03 | 83 | 1006.8 |
| 20260506191433 | 18 | 207 | 1.6 | 4.8 | 0.00 | 0.00 | 0.00 | 80 | 1006.9 |
| 20260506185931 | 19 | 172 | 1.6 | 4.8 | 0.00 | 0.00 | 0.00 | 75 | 1006.8 |
| 20260506184434 | 20 | 223 | 4.8 | 9.7 | 0.00 | 0.00 | 0.00 | 69 | 1006.6 |
| 20260506182933 | 21 | 243 | 1.6 | 3.2 | 0.00 | 0.00 | 0.00 | 67 | 1006.9 |
| 20260506181435 | 21 | 148 | 1.6 | 8.0 | 0.00 | 0.00 | 0.00 | 65 | 1006.9 |
| 20260506175931 | 21 | 243 | 3.2 | 12.9 | 0.00 | 0.00 | 0.00 | 63 | 1007.1 |
| 20260506174434 | 22 | 226 | 4.8 | 14.5 | 0.00 | 0.00 | 0.00 | 60 | 1007.0 |
| 20260506172934 | 22 | 259 | 1.6 | 9.7 | 0.00 | 0.00 | 0.00 | 61 | 1007.2 |
| 20260506171433 | 22 | 236 | 6.4 | 12.9 | 0.00 | 0.00 | 0.00 | 59 | 1007.3 |
| 20260506165934 | 22 | 269 | 4.8 | 12.9 | 0.00 | 0.00 | 0.00 | 61 | 1007.3 |
| 20260506164433 | 22 | 116 | 4.8 | 14.5 | 0.00 | 0.00 | 0.00 | 61 | 1007.6 |
| 20260506162935 | 22 | 119 | 0.0 | 12.9 | 0.00 | 0.00 | 0.00 | 63 | 1007.7 |
| 20260506161433 | 22 | 184 | 1.6 | 8.0 | 0.00 | 0.00 | 0.00 | 65 | 1007.9 |
| 20260506155934 | 22 | 148 | 0.0 | 4.8 | 0.00 | 0.00 | 0.00 | 65 | 1008.2 |
| 20260506154433 | 21 | 131 | 3.2 | 9.7 | 0.00 | 0.00 | 0.00 | 64 | 1008.4 |
| 20260506152934 | 22 | 124 | 1.6 | 8.0 | 0.00 | 0.00 | 0.00 | 63 | 1008.7 |
| 20260506151432 | 22 | 239 | 1.6 | 14.5 | 0.00 | 0.00 | 0.00 | 64 | 1008.8 |
| 20260506145934 | 22 | 233 | 3.2 | 11.3 | 0.00 | 0.00 | 0.00 | 64 | 1008.9 |
| 20260506144431 | 21 | 150 | 1.6 | 11.3 | 0.00 | 0.00 | 0.00 | 66 | 1008.8 |
| 20260506142930 | 21 | 143 | 3.2 | 9.7 | 0.00 | 0.00 | 0.00 | 67 | 1008.7 |
| 20260506141431 | 20 | 230 | 1.6 | 8.0 | 0.00 | 0.00 | 0.00 | 69 | 1008.6 |
| 20260506135936 | 20 | 194 | 1.6 | 4.8 | 0.00 | 0.00 | 0.00 | 72 | 1008.7 |
| 20260506134437 | 19 | 124 | 3.2 | 9.7 | 0.00 | 0.00 | 0.00 | 74 | 1008.7 |
| 20260506132935 | 18 | 271 | 0.0 | 6.4 | 0.00 | 0.00 | 0.00 | 76 | 1009.4 |
| 20260506131433 | 18 | 172 | 1.6 | 8.0 | 0.00 | 0.00 | 0.00 | 76 | 1009.5 |
| 20260506125931 | 18 | 165 | 3.2 | 6.4 | 0.00 | 0.00 | 0.00 | 77 | 1009.3 |
| 20260506124434 | 17 | 172 | 3.2 | 4.8 | 0.00 | 0.00 | 0.00 | 79 | 1009.5 |
| 20260506122935 | 17 | 259 | 0.0 | 4.8 | 0.00 | 0.00 | 0.00 | 81 | 1009.6 |
| 20260506121435 | 16 | 238 | 1.6 | 4.8 | 0.00 | 0.00 | 0.00 | 82 | 1009.4 |
| 20260506115935 | 15 | 146 | 1.6 | 4.8 | 0.00 | 0.00 | 0.00 | 84 | 1009.5 |
| 20260506114432 | 15 | 165 | 1.6 | 9.7 | 0.00 | 0.00 | 0.00 | 84 | 1009.7 |
| 20260506112933 | 15 | 207 | 1.6 | 9.7 | 0.00 | 0.00 | 0.00 | 85 | 1009.9 |
| 20260506111437 | 15 | 211 | 1.6 | 4.8 | 0.00 | 0.00 | 0.00 | 85 | 1009.7 |
| 20260506105937 | 15 | 155 | 1.6 | 4.8 | 0.00 | 0.00 | 0.00 | 85 | 1009.5 |
| 20260506104436 | 15 | 160 | 0.0 | 4.8 | 0.00 | 0.00 | 0.00 | 85 | 1009.7 |
| 20260506102933 | 15 | 252 | 1.6 | 3.2 | 0.00 | 0.00 | 0.00 | 85 | 1009.8 |
| 20260506101433 | 15 | 240 | 0.0 | 4.8 | 0.00 | 0.00 | 0.00 | 85 | 1009.7 |
| 20260506095933 | 15 | 229 | 0.0 | 3.2 | 0.00 | 0.00 | 0.00 | 85 | 1009.6 |
| 20260506094437 | 15 | 335 | 0.0 | 4.8 | 0.00 | 0.00 | 0.00 | 84 | 1009.4 |
| 20260506092936 | 15 | 137 | 1.6 | 4.8 | 0.00 | 0.00 | 0.00 | 84 | 1009.6 |
| 20260506091432 | 15 | 136 | 0.0 | 4.8 | 0.00 | 0.00 | 0.00 | 84 | 1009.5 |
| 20260506085932 | 15 | 94 | 1.6 | 3.2 | 0.00 | 0.00 | 0.00 | 83 | 1009.4 |
| 20260506084432 | 15 | 105 | 3.2 | 8.0 | 0.00 | 0.00 | 0.00 | 82 | 1009.7 |
| 20260506082939 | 15 | 243 | 1.6 | 8.0 | 0.00 | 0.00 | 0.00 | 82 | 1009.6 |
| 20260506081437 | 15 | 236 | 0.0 | 9.7 | 0.00 | 0.00 | 0.00 | 81 | 1009.7 |
| 20260506072934 | 16 | 246 | 3.2 | 11.3 | 0.00 | 0.00 | 0.00 | 79 | 1009.5 |